Location: Newark
(51.3318°N, 0.0053°E)
Time: 07:52:15
(UTC+00:00)

CAS-6 - Pass Details

Date: 02 July 2022
Orbit: 613 x 634 km, 97.9° (Epoch: 09 August)

Event Time Altitude Azimuth Distance (km) Brightness Sun altitude
Exits shadow 23:35:02 - 231° (SW) 2,197 ? -15.4°
Reaches altitude 10° 23:35:53 10° 240° (WSW) 2,001 ? -15.4°
Maximum altitude 23:38:10 14° 272° (W) 1,748 ? -15.5°
Drops below altitude 10° 23:40:29 10° 305° (NW) 2,002 ? -15.5°
Sets 23:43:42 0° 330° (NNW) 2,910 ? -15.6°
